Location: Eschentzwiller
(47.7125°N, 7.3981°E)
Time: 00:38:33
(UTC+00:00)

Cosmos 1939 Rocket - Pass Details

Date: 27 October 2020
Orbit: 532 x 584 km, 97.4° (Epoch: 26 November)

Event Time Altitude Azimuth Distance (km) Brightness Sun altitude
Rises 16:58:32 0° 146° (SE) 2,733 6.1 -7.1°
Reaches altitude 10° 17:00:46 10° 138° (SE) 1,833 5.2 -7.4°
Maximum altitude 17:04:26 37° 70° (ENE) 863 3.3 -8.0°
Drops below altitude 10° 17:08:04 10° 3° (N) 1,820 5.3 -8.6°
Sets 17:10:17 0° 355° (N) 2,711 6.3 -9.0°
